Time,TemperatureF,DewpointF,PressureIn,WindDirection,WindDirectionDegrees,WindSpeedMPH,WindSpeedGustMPH,Humidity,HourlyPrecipIn,Conditions,Clouds,dailyrainin,SolarRadiationWatts/m^2,SoftwareType,DateUTC
2013-06-01 00:00:00,80.9,78.0,29.76,SSE,162,7.2,15.2,91,0.00,,---,0.00,0.00,VWS V14.01,2013-06-01 05:00:00,
2013-06-01 00:01:00,80.9,78.0,29.76,SE,139,7.2,15.2,91,0.00,,---,0.00,0.00,VWS V14.01,2013-06-01 05:01:00,
2013-06-01 00:05:00,80.7,77.8,29.76,SSE,155,11.2,17.2,91,0.00,,---,0.00,0.00,VWS V14.01,2013-06-01 05:05:00,
2013-06-01 00:06:00,80.7,77.8,29.76,SE,145,11.2,17.2,91,0.00,,---,0.00,0.00,VWS V14.01,2013-06-01 05:06:00,
2013-06-01 00:10:00,80.5,77.6,29.76,SSE,150,11.2,23.2,91,0.00,,---,0.00,0.00,VWS V14.01,2013-06-01 05:10:00,
2013-06-01 00:11:00,80.5,77.6,29.76,South,184,15.2,23.2,91,0.00,,---,0.00,0.00,VWS V14.01,2013-06-01 05:11:00,
2013-06-01 00:15:00,80.5,77.6,29.75,SSE,150,7.2,21.2,91,0.00,,---,0.00,0.00,VWS V14.01,2013-06-01 05:15:00,
2013-06-01 00:16:00,80.5,77.6,29.75,SSE,158,7.2,21.2,91,0.00,,---,0.00,0.00,VWS V14.01,2013-06-01 05:16:00,
2013-06-01 00:20:00,80.7,77.8,29.75,SE,130,14.2,21.2,91,0.00,,---,0.00,0.00,VWS V14.01,2013-06-01 05:20:00,
2013-06-01 00:21:00,80.7,77.8,29.75,SE,137,12.2,21.2,91,0.00,,---,0.00,0.00,VWS V14.01,2013-06-01 05:21:00,
2013-06-01 00:25:00,80.9,78.0,29.75,South,179,5.2,22.2,91,0.00,,---,0.00,0.00,VWS V14.01,2013-06-01 05:25:00,
2013-06-01 00:26:00,80.9,78.0,29.75,SE,135,5.2,22.2,91,0.00,,---,0.00,0.00,VWS V14.01,2013-06-01 05:26:00,
2013-06-01 00:30:00,80.7,77.8,29.75,SSE,148,13.2,18.2,91,0.00,,---,0.00,0.00,VWS V14.01,2013-06-01 05:30:00,
2013-06-01 00:31:00,80.7,77.8,29.75,South,180,12.2,18.2,91,0.00,,---,0.00,0.00,VWS V14.01,2013-06-01 05:31:00,
2013-06-01 00:35:00,80.5,77.6,29.75,SE,128,17.2,20.2,91,0.00,,---,0.00,0.00,VWS V14.01,2013-06-01 05:35:00,
2013-06-01 00:36:00,80.5,77.6,29.75,SE,133,18.2,20.2,91,0.00,,---,0.00,0.00,VWS V14.01,2013-06-01 05:36:00,
2013-06-01 00:40:00,80.5,77.6,29.75,South,178,6.2,22.2,91,0.00,,---,0.00,0.00,VWS V14.01,2013-06-01 05:40:00,
2013-06-01 00:41:00,80.5,77.6,29.75,South,178,8.2,22.2,91,0.00,,---,0.00,0.00,VWS V14.01,2013-06-01 05:41:00,
2013-06-01 00:45:00,80.5,77.6,29.75,South,184,7.2,19.2,91,0.00,,---,0.00,0.00,VWS V14.01,2013-06-01 05:45:00,
2013-06-01 00:46:00,80.5,77.6,29.75,SW,215,15.2,19.2,91,0.00,,---,0.00,0.00,VWS V14.01,2013-06-01 05:46:00,
2013-06-01 00:50:00,80.5,77.6,29.75,ESE,123,12.2,17.2,91,0.00,,---,0.00,0.00,VWS V14.01,2013-06-01 05:50:00,
2013-06-01 00:51:00,80.5,77.6,29.75,SSE,152,13.2,17.2,91,0.00,,---,0.00,0.00,VWS V14.01,2013-06-01 05:51:00,
2013-06-01 00:55:00,80.7,77.8,29.75,South,184,16.2,18.2,91,0.00,,---,0.00,0.00,VWS V14.01,2013-06-01 05:55:00,
2013-06-01 00:56:00,80.7,77.8,29.75,SE,141,12.2,18.2,91,0.00,,---,0.00,0.00,VWS V14.01,2013-06-01 05:56:00,
2013-06-01 01:00:00,80.7,77.8,29.75,SSE,147,12.2,21.2,91,0.00,,---,0.00,0.00,VWS V14.01,2013-06-01 06:00:00,
2013-06-01 01:01:00,80.7,77.8,29.75,SE,140,12.2,21.2,91,0.00,,---,0.00,0.00,VWS V14.01,2013-06-01 06:01:00,
2013-06-01 01:05:00,80.7,77.8,29.75,South,183,13.2,19.2,91,0.00,,---,0.00,0.00,VWS V14.01,2013-06-01 06:05:00,
2013-06-01 01:06:00,80.7,77.8,29.75,SE,138,11.2,19.2,91,0.00,,---,0.00,0.00,VWS V14.01,2013-06-01 06:06:00,
2013-06-01 01:10:00,80.7,77.5,29.75,SSW,192,15.2,19.2,90,0.00,,---,0.00,0.00,VWS V14.01,2013-06-01 06:10:00,
2013-06-01 01:11:00,80.7,77.5,29.75,SSE,150,15.2,19.2,90,0.00,,---,0.00,0.00,VWS V14.01,2013-06-01 06:11:00,
2013-06-01 01:15:00,80.7,77.5,29.75,SSE,162,7.2,19.2,90,0.00,,---,0.00,0.00,VWS V14.01,2013-06-01 06:15:00,
2013-06-01 01:16:00,80.7,77.5,29.75,ESE,121,14.2,19.2,90,0.00,,---,0.00,0.00,VWS V14.01,2013-06-01 06:16:00,
2013-06-01 01:20:00,80.7,77.5,29.75,SE,143,12.2,19.2,90,0.00,,---,0.00,0.00,VWS V14.01,2013-06-01 06:20:00,
2013-06-01 01:21:00,80.7,77.5,29.75,SSE,153,13.2,19.2,90,0.00,,---,0.00,0.00,VWS V14.01,2013-06-01 06:21:00,
2013-06-01 01:25:00,80.7,77.5,29.75,SSE,153,7.2,23.2,90,0.00,,---,0.00,0.00,VWS V14.01,2013-06-01 06:25:00,
2013-06-01 01:26:00,80.7,77.5,29.75,SSE,160,13.2,23.2,90,0.00,,---,0.00,0.00,VWS V14.01,2013-06-01 06:26:00,
2013-06-01 01:30:00,80.5,77.6,29.75,SE,127,13.2,21.2,91,0.00,,---,0.00,0.00,VWS V14.01,2013-06-01 06:30:00,
2013-06-01 01:31:00,80.5,77.6,29.75,SSE,155,11.2,21.2,91,0.00,,---,0.00,0.00,VWS V14.01,2013-06-01 06:31:00,
2013-06-01 01:35:00,80.3,77.1,29.75,SE,138,7.2,21.2,90,0.00,,---,0.00,0.00,VWS V14.01,2013-06-01 06:35:00,
2013-06-01 01:36:00,80.3,77.1,29.75,South,173,5.2,21.2,90,0.00,,---,0.00,0.00,VWS V14.01,2013-06-01 06:36:00,
2013-06-01 01:40:00,80.5,77.6,29.75,SE,134,6.2,19.2,91,0.00,,---,0.00,0.00,VWS V14.01,2013-06-01 06:40:00,
2013-06-01 01:41:00,80.5,77.6,29.75,SSW,197,9.2,19.2,91,0.00,,---,0.00,0.00,VWS V14.01,2013-06-01 06:41:00,
2013-06-01 01:45:00,80.5,77.6,29.74,SSE,153,5.2,22.2,91,0.00,,---,0.00,0.00,VWS V14.01,2013-06-01 06:45:00,
2013-06-01 01:46:00,80.5,77.6,29.74,SSE,153,4.2,22.2,91,0.00,,---,0.00,0.00,VWS V14.01,2013-06-01 06:46:00,
2013-06-01 01:50:00,80.5,77.6,29.74,SSE,150,8.2,17.2,91,0.00,,---,0.00,0.00,VWS V14.01,2013-06-01 06:50:00,
2013-06-01 01:51:00,80.5,77.6,29.74,SE,143,8.2,17.2,91,0.00,,---,0.00,0.00,VWS V14.01,2013-06-01 06:51:00,
2013-06-01 01:55:00,80.3,77.4,29.74,South,190,5.2,17.2,91,0.00,,---,0.00,0.00,VWS V14.01,2013-06-01 06:55:00,
2013-06-01 01:56:00,80.3,77.4,29.74,SE,126,12.2,17.2,91,0.00,,---,0.00,0.00,VWS V14.01,2013-06-01 06:56:00,
2013-06-01 02:00:00,80.5,78.0,29.74,SSE,153,9.2,18.2,92,0.00,,---,0.00,0.00,VWS V14.01,2013-06-01 07:00:00,
2013-06-01 02:01:00,80.5,78.0,29.74,South,185,7.2,18.2,92,0.00,,---,0.00,0.00,VWS V14.01,2013-06-01 07:01:00,
2013-06-01 02:05:00,80.3,77.4,29.74,SSE,152,16.2,21.2,91,0.00,,---,0.00,0.00,VWS V14.01,2013-06-01 07:05:00,
2013-06-01 02:06:00,80.3,77.4,29.74,SSE,147,18.2,21.2,91,0.00,,---,0.00,0.00,VWS V14.01,2013-06-01 07:06:00,
2013-06-01 02:10:00,80.5,78.0,29.74,SE,146,11.2,23.2,92,0.00,,---,0.00,0.00,VWS V14.01,2013-06-01 07:10:00,
2013-06-01 02:11:00,80.5,78.0,29.74,SSE,163,5.2,23.2,92,0.00,,---,0.00,0.00,VWS V14.01,2013-06-01 07:11:00,
2013-06-01 02:15:00,80.9,78.0,29.74,SSE,165,7.2,19.2,91,0.00,,---,0.00,0.00,VWS V14.01,2013-06-01 07:15:00,
2013-06-01 02:16:00,80.9,78.0,29.74,SE,144,8.2,19.2,91,0.00,,---,0.00,0.00,VWS V14.01,2013-06-01 07:16:00,
2013-06-01 02:20:00,80.9,77.7,29.74,SE,137,9.2,21.2,90,0.00,,---,0.00,0.00,VWS V14.01,2013-06-01 07:20:00,
2013-06-01 02:21:00,80.9,77.7,29.74,SSE,156,10.2,21.2,90,0.00,,---,0.00,0.00,VWS V14.01,2013-06-01 07:21:00,
2013-06-01 02:25:00,80.9,77.7,29.74,SSE,163,12.2,20.2,90,0.00,,---,0.00,0.00,VWS V14.01,2013-06-01 07:25:00,
2013-06-01 02:26:00,80.9,77.7,29.74,South,180,13.2,20.2,90,0.00,,---,0.00,0.00,VWS V14.01,2013-06-01 07:26:00,
2013-06-01 02:30:00,80.7,77.8,29.73,SSE,147,10.2,22.2,91,0.00,,---,0.00,0.00,VWS V14.01,2013-06-01 07:30:00,
2013-06-01 02:31:00,80.7,77.8,29.73,SE,143,13.2,22.2,91,0.00,,---,0.00,0.00,VWS V14.01,2013-06-01 07:31:00,
2013-06-01 02:35:00,80.5,77.6,29.73,SE,135,6.2,19.2,91,0.00,,---,0.00,0.00,VWS V14.01,2013-06-01 07:35:00,
2013-06-01 02:36:00,80.5,77.6,29.73,SSE,161,5.2,19.2,91,0.00,,---,0.00,0.00,VWS V14.01,2013-06-01 07:36:00,
2013-06-01 02:40:00,80.5,77.6,29.73,SSE,152,13.2,23.2,91,0.00,,---,0.00,0.00,VWS V14.01,2013-06-01 07:40:00,
2013-06-01 02:41:00,80.5,77.6,29.73,SSE,161,16.2,23.2,91,0.00,,---,0.00,0.00,VWS V14.01,2013-06-01 07:41:00,
2013-06-01 02:45:00,80.3,77.4,29.73,SE,137,18.2,22.2,91,0.00,,---,0.00,0.00,VWS V14.01,2013-06-01 07:45:00,
2013-06-01 02:46:00,80.3,77.4,29.73,SSE,158,22.2,22.2,91,0.00,,---,0.00,0.00,VWS V14.01,2013-06-01 07:46:00,
2013-06-01 02:50:00,80.3,77.4,29.73,SSE,154,17.2,22.2,91,0.00,,---,0.00,0.00,VWS V14.01,2013-06-01 07:50:00,
2013-06-01 02:51:00,80.3,77.4,29.73,SSE,155,20.2,22.2,91,0.00,,---,0.00,0.00,VWS V14.01,2013-06-01 07:51:00,
2013-06-01 02:55:00,80.3,77.4,29.73,SSE,167,7.2,17.2,91,0.00,,---,0.00,0.00,VWS V14.01,2013-06-01 07:55:00,
2013-06-01 02:56:00,80.3,77.4,29.73,ESE,123,9.2,17.2,91,0.00,,---,0.00,0.00,VWS V14.01,2013-06-01 07:56:00,
2013-06-01 03:00:00,80.3,77.4,29.73,SE,145,8.2,19.2,91,0.00,,---,0.00,0.00,VWS V14.01,2013-06-01 08:00:00,
2013-06-01 03:01:00,80.3,77.4,29.73,SSE,161,14.2,19.2,91,0.00,,---,0.00,0.00,VWS V14.01,2013-06-01 08:01:00,
2013-06-01 03:05:00,80.3,77.4,29.73,SE,138,14.2,18.2,91,0.00,,---,0.00,0.00,VWS V14.01,2013-06-01 08:05:00,
2013-06-01 03:06:00,80.3,77.4,29.73,SE,131,13.2,18.2,91,0.00,,---,0.00,0.00,VWS V14.01,2013-06-01 08:06:00,
2013-06-01 03:10:00,80.3,77.4,29.73,SW,232,12.2,20.2,91,0.00,,---,0.00,0.00,VWS V14.01,2013-06-01 08:10:00,
2013-06-01 03:11:00,80.3,77.4,29.73,SE,142,11.2,20.2,91,0.00,,---,0.00,0.00,VWS V14.01,2013-06-01 08:11:00,
2013-06-01 03:15:00,80.5,77.3,29.73,ESE,119,8.2,22.2,90,0.00,,---,0.00,0.00,VWS V14.01,2013-06-01 08:15:00,
2013-06-01 03:16:00,80.5,77.3,29.73,South,186,12.2,22.2,90,0.00,,---,0.00,0.00,VWS V14.01,2013-06-01 08:16:00,
2013-06-01 03:20:00,80.7,77.5,29.73,SE,125,15.2,22.2,90,0.00,,---,0.00,0.00,VWS V14.01,2013-06-01 08:20:00,
2013-06-01 03:21:00,80.7,77.5,29.73,SE,137,10.2,22.2,90,0.00,,---,0.00,0.00,VWS V14.01,2013-06-01 08:21:00,
2013-06-01 03:25:00,80.5,77.0,29.73,SSE,164,15.2,16.2,89,0.00,,---,0.00,0.00,VWS V14.01,2013-06-01 08:25:00,
2013-06-01 03:26:00,80.5,77.0,29.73,South,190,7.2,16.2,89,0.00,,---,0.00,0.00,VWS V14.01,2013-06-01 08:26:00,
2013-06-01 03:30:00,80.7,77.2,29.73,SE,145,11.2,19.2,89,0.00,,---,0.00,0.00,VWS V14.01,2013-06-01 08:30:00,
2013-06-01 03:31:00,80.7,77.2,29.73,SSE,161,11.2,19.2,89,0.00,,---,0.00,0.00,VWS V14.01,2013-06-01 08:31:00,
2013-06-01 03:35:00,80.5,77.0,29.73,ESE,117,11.2,21.2,89,0.00,,---,0.00,0.00,VWS V14.01,2013-06-01 08:35:00,
2013-06-01 03:36:00,80.5,77.0,29.73,South,188,13.2,21.2,89,0.00,,---,0.00,0.00,VWS V14.01,2013-06-01 08:36:00,
2013-06-01 03:40:00,80.5,77.0,29.73,SSE,158,6.2,21.2,89,0.00,,---,0.00,0.00,VWS V14.01,2013-06-01 08:40:00,
2013-06-01 03:41:00,80.5,77.0,29.73,SSE,155,10.2,21.2,89,0.00,,---,0.00,0.00,VWS V14.01,2013-06-01 08:41:00,
2013-06-01 03:45:00,80.5,77.0,29.73,SSE,162,12.2,19.2,89,0.00,,---,0.00,0.00,VWS V14.01,2013-06-01 08:45:00,
2013-06-01 03:46:00,80.5,77.0,29.73,South,187,12.2,19.2,89,0.00,,---,0.00,0.00,VWS V14.01,2013-06-01 08:46:00,
2013-06-01 03:50:00,80.5,77.0,29.73,SSE,165,12.2,22.2,89,0.00,,---,0.00,0.00,VWS V14.01,2013-06-01 08:50:00,
2013-06-01 03:51:00,80.5,77.0,29.73,South,180,11.2,22.2,89,0.00,,---,0.00,0.00,VWS V14.01,2013-06-01 08:51:00,
2013-06-01 03:55:00,80.5,77.0,29.73,SSE,153,5.2,23.2,89,0.00,,---,0.00,0.00,VWS V14.01,2013-06-01 08:55:00,
2013-06-01 03:56:00,80.5,77.0,29.73,SSE,153,6.2,23.2,89,0.00,,---,0.00,0.00,VWS V14.01,2013-06-01 08:56:00,
2013-06-01 04:00:00,80.5,77.0,29.73,SE,143,7.2,19.2,89,0.00,,---,0.00,0.00,VWS V14.01,2013-06-01 09:00:00,
2013-06-01 04:01:00,80.5,77.0,29.73,SE,135,11.2,19.2,89,0.00,,---,0.00,0.00,VWS V14.01,2013-06-01 09:01:00,
2013-06-01 04:05:00,80.5,77.0,29.73,SSE,167,13.2,18.2,89,0.00,,---,0.00,0.00,VWS V14.01,2013-06-01 09:05:00,
2013-06-01 04:06:00,80.5,77.0,29.73,South,171,12.2,18.2,89,0.00,,---,0.00,0.00,VWS V14.01,2013-06-01 09:06:00,
2013-06-01 04:10:00,80.5,77.0,29.73,South,181,10.2,17.2,89,0.00,,---,0.00,0.00,VWS V14.01,2013-06-01 09:10:00,
2013-06-01 04:11:00,80.5,77.0,29.73,South,183,7.2,17.2,89,0.00,,---,0.00,0.00,VWS V14.01,2013-06-01 09:11:00,
2013-06-01 04:15:00,80.5,77.0,29.74,SSE,148,7.2,15.2,89,0.00,,---,0.00,0.00,VWS V14.01,2013-06-01 09:15:00,
2013-06-01 04:16:00,80.5,77.0,29.74,ESE,114,15.2,15.2,89,0.00,,---,0.00,0.00,VWS V14.01,2013-06-01 09:16:00,
2013-06-01 04:20:00,80.7,77.2,29.74,South,169,6.2,19.2,89,0.00,,---,0.00,0.00,VWS V14.01,2013-06-01 09:20:00,
2013-06-01 04:21:00,80.7,77.2,29.74,SSE,150,11.2,19.2,89,0.00,,---,0.00,0.00,VWS V14.01,2013-06-01 09:21:00,
2013-06-01 04:25:00,80.5,77.0,29.74,South,183,13.2,21.2,89,0.00,,---,0.00,0.00,VWS V14.01,2013-06-01 09:25:00,
2013-06-01 04:26:00,80.5,77.0,29.74,SSE,150,10.2,21.2,89,0.00,,---,0.00,0.00,VWS V14.01,2013-06-01 09:26:00,
2013-06-01 04:30:00,80.5,76.6,29.73,South,184,5.2,18.2,88,0.00,,---,0.00,0.00,VWS V14.01,2013-06-01 09:30:00,
2013-06-01 04:31:00,80.5,76.6,29.73,SSE,148,11.2,18.2,88,0.00,,---,0.00,0.00,VWS V14.01,2013-06-01 09:31:00,
2013-06-01 04:35:00,80.7,77.2,29.73,SSE,147,5.2,19.2,89,0.00,,---,0.00,0.00,VWS V14.01,2013-06-01 09:35:00,
2013-06-01 04:36:00,80.7,76.8,29.73,SSE,150,7.2,19.2,88,0.00,,---,0.00,0.00,VWS V14.01,2013-06-01 09:36:00,
2013-06-01 04:40:00,80.9,77.4,29.73,SSE,161,4.2,14.2,89,0.00,,---,0.00,0.00,VWS V14.01,2013-06-01 09:40:00,
2013-06-01 04:41:00,80.9,77.4,29.73,SSE,161,11.2,14.2,89,0.00,,---,0.00,0.00,VWS V14.01,2013-06-01 09:41:00,
2013-06-01 04:45:00,80.7,77.2,29.74,South,185,6.2,19.2,89,0.00,,---,0.00,0.00,VWS V14.01,2013-06-01 09:45:00,
2013-06-01 04:46:00,80.7,77.2,29.74,SSE,157,13.2,19.2,89,0.00,,---,0.00,0.00,VWS V14.01,2013-06-01 09:46:00,
2013-06-01 04:50:00,80.5,77.3,29.74,SW,228,7.2,21.2,90,0.00,,---,0.00,0.00,VWS V14.01,2013-06-01 09:50:00,
2013-06-01 04:51:00,80.5,77.3,29.74,SSE,163,14.2,21.2,90,0.00,,---,0.00,0.00,VWS V14.01,2013-06-01 09:51:00,
2013-06-01 04:55:00,80.5,77.0,29.74,SSE,148,12.2,18.2,89,0.00,,---,0.00,0.00,VWS V14.01,2013-06-01 09:55:00,
2013-06-01 04:56:00,80.5,77.0,29.74,SSE,151,12.2,18.2,89,0.00,,---,0.00,0.00,VWS V14.01,2013-06-01 09:56:00,
2013-06-01 05:00:00,80.7,77.2,29.74,SSE,152,11.2,18.2,89,0.00,,---,0.00,0.00,VWS V14.01,2013-06-01 10:00:00,
2013-06-01 05:01:00,80.7,77.2,29.74,SE,145,17.2,18.2,89,0.00,,---,0.00,0.00,VWS V14.01,2013-06-01 10:01:00,
2013-06-01 05:05:00,80.5,77.0,29.74,SE,130,6.2,18.2,89,0.00,,---,0.00,0.00,VWS V14.01,2013-06-01 10:05:00,
2013-06-01 05:06:00,80.5,77.0,29.74,SSE,167,6.2,18.2,89,0.00,,---,0.00,0.00,VWS V14.01,2013-06-01 10:06:00,
2013-06-01 05:10:00,80.5,77.0,29.74,SSE,163,14.2,22.2,89,0.00,,---,0.00,0.00,VWS V14.01,2013-06-01 10:10:00,
2013-06-01 05:11:00,80.5,77.0,29.74,SE,140,18.2,21.2,89,0.00,,---,0.00,0.00,VWS V14.01,2013-06-01 10:11:00,
2013-06-01 05:15:00,80.5,77.0,29.75,South,175,6.2,24.2,89,0.00,,---,0.00,0.00,VWS V14.01,2013-06-01 10:15:00,
2013-06-01 05:16:00,80.5,77.0,29.75,SSW,202,6.2,24.2,89,0.00,,---,0.00,0.00,VWS V14.01,2013-06-01 10:16:00,
2013-06-01 05:20:00,80.5,76.6,29.75,SE,126,10.2,20.2,88,0.00,,---,0.00,0.00,VWS V14.01,2013-06-01 10:20:00,
2013-06-01 05:21:00,80.5,76.6,29.75,South,182,5.2,20.2,88,0.00,,---,0.00,0.00,VWS V14.01,2013-06-01 10:21:00,
2013-06-01 05:25:00,80.5,77.0,29.75,South,189,13.2,24.2,89,0.00,,---,0.00,0.00,VWS V14.01,2013-06-01 10:25:00,
2013-06-01 05:26:00,80.5,77.0,29.75,SE,144,8.2,24.2,89,0.00,,---,0.00,0.00,VWS V14.01,2013-06-01 10:26:00,
2013-06-01 05:30:00,80.5,77.0,29.75,SSE,167,6.2,18.2,89,0.00,,---,0.00,0.00,VWS V14.01,2013-06-01 10:30:00,
2013-06-01 05:31:00,80.5,77.0,29.75,SSE,162,15.2,18.2,89,0.00,,---,0.00,0.00,VWS V14.01,2013-06-01 10:31:00,
2013-06-01 05:35:00,80.5,77.3,29.75,SSE,161,7.2,18.2,90,0.00,,---,0.00,0.00,VWS V14.01,2013-06-01 10:35:00,
2013-06-01 05:36:00,80.5,77.3,29.75,SW,217,15.2,18.2,90,0.00,,---,0.00,0.00,VWS V14.01,2013-06-01 10:36:00,
2013-06-01 05:40:00,80.7,77.2,29.75,SE,124,8.2,22.2,89,0.00,,---,0.00,0.00,VWS V14.01,2013-06-01 10:40:00,
2013-06-01 05:41:00,80.7,77.2,29.75,SSE,167,12.2,22.2,89,0.00,,---,0.00,0.00,VWS V14.01,2013-06-01 10:41:00,
2013-06-01 05:45:00,81.1,77.6,29.75,SE,130,10.2,17.2,89,0.00,,---,0.00,0.00,VWS V14.01,2013-06-01 10:45:00,
2013-06-01 05:46:00,81.1,77.6,29.75,South,181,12.2,17.2,89,0.00,,---,0.00,0.00,VWS V14.01,2013-06-01 10:46:00,
2013-06-01 05:50:00,80.7,77.2,29.75,SE,134,12.2,19.2,89,0.00,,---,0.00,0.00,VWS V14.01,2013-06-01 10:50:00,
2013-06-01 05:51:00,80.7,77.2,29.75,SE,134,16.2,19.2,89,0.00,,---,0.00,0.00,VWS V14.01,2013-06-01 10:51:00,
2013-06-01 05:55:00,80.7,77.5,29.75,SE,140,15.2,19.2,90,0.00,,---,0.00,0.00,VWS V14.01,2013-06-01 10:55:00,
2013-06-01 05:56:00,80.7,77.5,29.75,South,169,13.2,19.2,90,0.00,,---,0.00,0.00,VWS V14.01,2013-06-01 10:56:00,
2013-06-01 06:00:00,80.3,77.1,29.73,SSE,153,19.2,21.2,90,0.00,,---,0.00,0.00,VWS V14.01,2013-06-01 11:00:00,
2013-06-01 06:01:00,80.3,77.1,29.73,SSE,148,14.2,21.2,90,0.00,,---,0.00,0.00,VWS V14.01,2013-06-01 11:01:00,
2013-06-01 06:05:00,80.3,77.1,29.73,SE,130,14.2,20.2,90,0.00,,---,0.00,0.00,VWS V14.01,2013-06-01 11:05:00,
2013-06-01 06:06:00,80.3,77.1,29.73,SE,146,15.2,20.2,90,0.00,,---,0.00,0.00,VWS V14.01,2013-06-01 11:06:00,
2013-06-01 06:10:00,80.3,77.1,29.73,SSE,157,6.2,20.2,90,0.00,,---,0.00,0.00,VWS V14.01,2013-06-01 11:10:00,
2013-06-01 06:11:00,80.3,77.1,29.73,South,173,5.2,20.2,90,0.00,,---,0.00,0.00,VWS V14.01,2013-06-01 11:11:00,
2013-06-01 06:15:00,80.3,76.8,29.73,SSE,167,7.2,22.2,89,0.00,,---,0.00,0.00,VWS V14.01,2013-06-01 11:15:00,
2013-06-01 06:16:00,80.3,76.8,29.73,SSE,156,7.2,22.2,89,0.00,,---,0.00,0.00,VWS V14.01,2013-06-01 11:16:00,
2013-06-01 06:20:00,80.1,76.9,29.73,SE,142,15.2,18.2,90,0.00,,---,0.00,0.00,VWS V14.01,2013-06-01 11:20:00,
2013-06-01 06:21:00,80.1,76.9,29.73,SSE,161,11.2,18.2,90,0.00,,---,0.00,0.00,VWS V14.01,2013-06-01 11:21:00,
2013-06-01 06:25:00,80.3,77.1,29.73,SSE,150,7.2,16.2,90,0.00,,---,0.00,0.00,VWS V14.01,2013-06-01 11:25:00,
2013-06-01 06:26:00,80.3,77.1,29.73,SE,133,14.2,16.2,90,0.00,,---,0.00,0.00,VWS V14.01,2013-06-01 11:26:00,
2013-06-01 06:30:00,80.3,77.1,29.75,South,174,7.2,20.2,90,0.00,,---,0.00,0.00,VWS V14.01,2013-06-01 11:30:00,
2013-06-01 06:31:00,80.3,77.1,29.75,SE,143,8.2,20.2,90,0.00,,---,0.00,0.00,VWS V14.01,2013-06-01 11:31:00,
2013-06-01 06:35:00,80.3,76.8,29.75,SSE,155,10.2,19.2,89,0.00,,---,0.00,0.00,VWS V14.01,2013-06-01 11:35:00,
2013-06-01 06:36:00,80.3,76.8,29.75,SSE,157,6.2,19.2,89,0.00,,---,0.00,0.00,VWS V14.01,2013-06-01 11:36:00,
2013-06-01 06:40:00,80.3,77.1,29.75,SSE,153,15.2,17.2,90,0.00,,---,0.00,5.00,VWS V14.01,2013-06-01 11:40:00,
2013-06-01 06:41:00,80.3,77.1,29.75,South,174,6.2,17.2,90,0.00,,---,0.00,5.00,VWS V14.01,2013-06-01 11:41:00,
2013-06-01 06:45:00,80.3,77.1,29.75,South,181,8.2,23.2,90,0.00,,---,0.00,7.00,VWS V14.01,2013-06-01 11:45:00,
2013-06-01 06:46:00,80.3,77.1,29.75,South,184,12.2,23.2,90,0.00,,---,0.00,7.00,VWS V14.01,2013-06-01 11:46:00,
2013-06-01 06:50:00,80.1,76.9,29.75,SSE,150,5.2,17.2,90,0.00,,---,0.00,11.00,VWS V14.01,2013-06-01 11:50:00,
2013-06-01 06:51:00,80.3,77.1,29.75,SSE,164,8.2,17.2,90,0.00,,---,0.00,11.00,VWS V14.01,2013-06-01 11:51:00,
2013-06-01 06:55:00,80.1,76.9,29.75,SE,145,8.2,18.2,90,0.00,,---,0.00,25.00,VWS V14.01,2013-06-01 11:55:00,
2013-06-01 06:56:00,80.1,76.9,29.75,SSE,167,10.2,18.2,90,0.00,,---,0.00,21.00,VWS V14.01,2013-06-01 11:56:00,
2013-06-01 07:00:00,80.1,76.9,29.75,SSE,161,17.2,17.2,90,0.00,,---,0.00,26.00,VWS V14.01,2013-06-01 12:00:00,
2013-06-01 07:01:00,80.1,76.9,29.75,SE,144,13.2,17.2,90,0.00,,---,0.00,26.00,VWS V14.01,2013-06-01 12:01:00,
2013-06-01 07:05:00,80.1,76.9,29.75,SSE,153,14.2,21.2,90,0.00,,---,0.00,26.00,VWS V14.01,2013-06-01 12:05:00,
2013-06-01 07:06:00,80.1,76.9,29.75,South,188,13.2,21.2,90,0.00,,---,0.00,26.00,VWS V14.01,2013-06-01 12:06:00,
2013-06-01 07:10:00,80.1,76.9,29.75,SSE,154,9.2,20.2,90,0.00,,---,0.00,47.00,VWS V14.01,2013-06-01 12:10:00,
2013-06-01 07:11:00,80.1,76.9,29.75,SSW,196,10.2,20.2,90,0.00,,---,0.00,44.00,VWS V14.01,2013-06-01 12:11:00,
2013-06-01 07:15:00,80.3,76.8,29.75,SSE,167,16.2,20.2,89,0.00,,---,0.00,63.00,VWS V14.01,2013-06-01 12:15:00,
2013-06-01 07:16:00,80.3,76.8,29.75,SSE,159,12.2,20.2,89,0.00,,---,0.00,63.00,VWS V14.01,2013-06-01 12:16:00,
2013-06-01 07:20:00,80.5,77.0,29.75,SSE,157,9.2,20.2,89,0.00,,---,0.00,47.00,VWS V14.01,2013-06-01 12:20:00,
2013-06-01 07:21:00,80.5,77.0,29.75,SSE,159,6.2,20.2,89,0.00,,---,0.00,47.00,VWS V14.01,2013-06-01 12:21:00,
2013-06-01 07:25:00,80.7,76.8,29.75,SSE,158,9.2,17.2,88,0.00,,---,0.00,44.00,VWS V14.01,2013-06-01 12:25:00,
2013-06-01 07:30:00,80.7,77.2,29.75,SSE,154,4.2,20.2,89,0.00,,---,0.00,40.00,VWS V14.01,2013-06-01 12:30:00,
2013-06-01 07:31:00,80.7,77.2,29.75,SSE,161,13.2,20.2,89,0.00,,---,0.00,58.00,VWS V14.01,2013-06-01 12:31:00,
2013-06-01 07:35:00,80.3,76.8,29.75,SE,144,11.2,17.2,89,0.00,,---,0.00,69.00,VWS V14.01,2013-06-01 12:35:00,
2013-06-01 07:36:00,80.5,77.0,29.75,SSE,157,5.2,17.2,89,0.00,,---,0.00,69.00,VWS V14.01,2013-06-01 12:36:00,
2013-06-01 07:40:00,80.3,76.8,29.75,SSE,148,8.2,17.2,89,0.00,,---,0.00,65.00,VWS V14.01,2013-06-01 12:40:00,
2013-06-01 07:41:00,80.3,76.8,29.75,SSE,151,6.2,17.2,89,0.00,,---,0.00,65.00,VWS V14.01,2013-06-01 12:41:00,
2013-06-01 07:45:00,80.5,77.0,29.76,SSE,161,7.2,18.2,89,0.00,,---,0.00,58.00,VWS V14.01,2013-06-01 12:45:00,
2013-06-01 07:46:00,80.3,76.8,29.76,South,173,10.2,18.2,89,0.00,,---,0.00,60.00,VWS V14.01,2013-06-01 12:46:00,
2013-06-01 07:50:00,80.5,76.6,29.76,SSE,162,12.2,19.2,88,0.00,,---,0.00,65.00,VWS V14.01,2013-06-01 12:50:00,
2013-06-01 07:55:00,80.7,77.2,29.76,SSE,161,11.2,18.2,89,0.00,,---,0.00,132.00,VWS V14.01,2013-06-01 12:55:00,
2013-06-01 08:00:00,80.9,77.0,29.76,SE,127,14.2,14.2,88,0.00,,---,0.00,118.00,VWS V14.01,2013-06-01 13:00:00,
2013-06-01 08:05:00,80.9,77.0,29.76,SE,138,14.2,21.2,88,0.00,,---,0.00,104.00,VWS V14.01,2013-06-01 13:05:00,
2013-06-01 08:10:00,81.2,77.3,29.76,South,174,14.2,21.2,88,0.00,,---,0.00,156.00,VWS V14.01,2013-06-01 13:10:00,
2013-06-01 08:15:00,81.4,77.2,29.77,SE,130,12.2,18.2,87,0.00,,---,0.00,165.00,VWS V14.01,2013-06-01 13:15:00,
2013-06-01 08:20:00,81.4,76.8,29.77,SSE,151,5.2,21.2,86,0.00,,---,0.00,109.00,VWS V14.01,2013-06-01 13:20:00,
2013-06-01 08:25:00,81.2,76.6,29.77,South,178,11.2,18.2,86,0.00,,---,0.00,81.00,VWS V14.01,2013-06-01 13:25:00,
2013-06-01 08:30:00,81.8,77.2,29.77,SE,142,16.2,23.2,86,0.00,,---,0.00,188.00,VWS V14.01,2013-06-01 13:30:00,
2013-06-01 08:35:00,82.0,77.1,29.77,SSW,200,6.2,19.2,85,0.00,,---,0.00,93.00,VWS V14.01,2013-06-01 13:35:00,
2013-06-01 08:40:00,81.6,76.7,29.77,SE,141,8.2,15.2,85,0.00,,---,0.00,141.00,VWS V14.01,2013-06-01 13:40:00,
2013-06-01 08:45:00,82.0,77.1,29.78,SSE,160,17.2,19.2,85,0.00,,---,0.00,230.00,VWS V14.01,2013-06-01 13:45:00,
2013-06-01 08:50:00,82.0,77.1,29.78,SSE,161,7.2,23.2,85,0.00,,---,0.00,144.00,VWS V14.01,2013-06-01 13:50:00,
2013-06-01 08:55:00,81.6,77.0,29.78,SSW,198,7.2,16.2,86,0.00,,---,0.00,123.00,VWS V14.01,2013-06-01 13:55:00,
2013-06-01 09:00:00,81.6,77.0,29.78,SE,139,10.2,19.2,86,0.00,,---,0.00,174.00,VWS V14.01,2013-06-01 14:00:00,
2013-06-01 09:05:00,82.2,77.2,29.78,SSE,161,12.2,20.2,85,0.00,,---,0.00,244.00,VWS V14.01,2013-06-01 14:05:00,
2013-06-01 09:10:00,82.2,76.9,29.78,SSE,152,18.2,22.2,84,0.00,,---,0.00,216.00,VWS V14.01,2013-06-01 14:10:00,
2013-06-01 09:15:00,82.2,76.9,29.78,SSW,195,8.2,19.2,84,0.00,,---,0.00,246.00,VWS V14.01,2013-06-01 14:15:00,
2013-06-01 09:20:00,83.2,77.1,29.78,SSE,159,10.2,18.2,82,0.00,,---,0.00,406.00,VWS V14.01,2013-06-01 14:20:00,
2013-06-01 09:25:00,83.8,77.7,29.78,SE,129,5.2,16.2,82,0.00,,---,0.00,297.00,VWS V14.01,2013-06-01 14:25:00,
2013-06-01 09:30:00,83.4,77.0,29.78,SSE,148,10.2,27.2,81,0.00,,---,0.00,346.00,VWS V14.01,2013-06-01 14:30:00,
2013-06-01 09:35:00,82.8,76.8,29.78,SE,132,4.2,19.2,82,0.00,,---,0.00,227.00,VWS V14.01,2013-06-01 14:35:00,
2013-06-01 09:40:00,82.8,76.8,29.78,SE,144,11.2,20.2,82,0.00,,---,0.00,193.00,VWS V14.01,2013-06-01 14:40:00,
2013-06-01 09:45:00,83.4,77.3,29.78,SSE,158,13.2,21.2,82,0.00,,---,0.00,193.00,VWS V14.01,2013-06-01 14:45:00,
2013-06-01 09:50:00,83.6,77.2,29.78,SSE,165,8.2,21.2,81,0.00,,---,0.00,309.00,VWS V14.01,2013-06-01 14:50:00,
2013-06-01 09:55:00,83.6,77.5,29.78,SSE,163,12.2,16.2,82,0.00,,---,0.00,348.00,VWS V14.01,2013-06-01 14:55:00,
2013-06-01 10:00:00,83.6,77.2,29.78,SSE,147,12.2,16.2,81,0.00,,---,0.00,255.00,VWS V14.01,2013-06-01 15:00:00,
2013-06-01 10:05:00,83.6,77.5,29.78,SE,142,3.2,16.2,82,0.00,,---,0.00,279.00,VWS V14.01,2013-06-01 15:05:00,
2013-06-01 10:10:00,84.0,77.9,29.78,SSE,152,10.2,15.2,82,0.00,,---,0.00,933.00,VWS V14.01,2013-06-01 15:10:00,
2013-06-01 10:15:00,84.3,77.5,29.78,SSE,148,20.2,20.2,80,0.00,,---,0.00,756.00,VWS V14.01,2013-06-01 15:15:00,
2013-06-01 10:20:00,84.1,77.6,29.78,SE,130,7.2,20.2,81,0.00,,---,0.00,279.00,VWS V14.01,2013-06-01 15:20:00,
2013-06-01 10:25:00,83.8,77.3,29.78,SSE,159,9.2,20.2,81,0.00,,---,0.00,954.00,VWS V14.01,2013-06-01 15:25:00,
2013-06-01 10:30:00,84.5,77.3,29.78,SSE,159,15.2,21.2,79,0.00,,---,0.00,933.00,VWS V14.01,2013-06-01 15:30:00,
2013-06-01 10:35:00,84.3,77.5,29.78,SSE,152,12.2,18.2,80,0.00,,---,0.00,290.00,VWS V14.01,2013-06-01 15:35:00,
2013-06-01 10:40:00,84.5,77.3,29.78,SSE,154,7.2,19.2,79,0.00,,---,0.00,362.00,VWS V14.01,2013-06-01 15:40:00,
2013-06-01 10:45:00,84.3,77.5,29.78,SE,140,14.2,17.2,80,0.00,,---,0.00,297.00,VWS V14.01,2013-06-01 15:45:00,
2013-06-01 10:50:00,84.1,77.3,29.78,SSE,157,10.2,21.2,80,0.00,,---,0.00,276.00,VWS V14.01,2013-06-01 15:50:00,
2013-06-01 10:55:00,84.0,77.5,29.78,SE,129,7.2,20.2,81,0.00,,---,0.00,315.00,VWS V14.01,2013-06-01 15:55:00,
2013-06-01 11:00:00,84.5,78.0,29.78,South,173,7.2,17.2,81,0.00,,---,0.00,410.00,VWS V14.01,2013-06-01 16:00:00,
2013-06-01 11:05:00,84.5,77.7,29.78,SSE,159,17.2,22.2,80,0.00,,---,0.00,1118.00,VWS V14.01,2013-06-01 16:05:00,
2013-06-01 11:10:00,84.5,77.7,29.78,SSE,154,10.2,20.2,80,0.00,,---,0.00,434.00,VWS V14.01,2013-06-01 16:10:00,
2013-06-01 11:15:00,84.9,77.7,29.78,SSE,148,8.2,18.2,79,0.00,,---,0.00,1058.00,VWS V14.01,2013-06-01 16:15:00,
2013-06-01 11:20:00,85.5,77.9,29.78,SSE,148,13.2,20.2,78,0.00,,---,0.00,360.00,VWS V14.01,2013-06-01 16:20:00,
2013-06-01 11:25:00,86.1,78.4,29.78,SSW,202,12.2,17.2,78,0.00,,---,0.00,998.00,VWS V14.01,2013-06-01 16:25:00,
2013-06-01 11:30:00,86.3,78.2,29.78,SE,140,12.2,19.2,77,0.00,,---,0.00,1002.00,VWS V14.01,2013-06-01 16:30:00,
2013-06-01 11:35:00,85.7,77.7,29.78,SSE,161,14.2,18.2,77,0.00,,---,0.00,1000.00,VWS V14.01,2013-06-01 16:35:00,
2013-06-01 11:40:00,85.7,78.4,29.78,SSE,164,10.2,20.2,79,0.00,,---,0.00,1000.00,VWS V14.01,2013-06-01 16:40:00,
2013-06-01 11:45:00,86.1,78.4,29.78,SE,138,14.2,19.2,78,0.00,,---,0.00,993.00,VWS V14.01,2013-06-01 16:45:00,
2013-06-01 11:50:00,86.3,78.2,29.78,ESE,111,13.2,20.2,77,0.00,,---,0.00,984.00,VWS V14.01,2013-06-01 16:50:00,
2013-06-01 11:55:00,86.1,78.4,29.78,SSE,157,10.2,21.2,78,0.00,,---,0.00,963.00,VWS V14.01,2013-06-01 16:55:00,
2013-06-01 12:00:00,86.3,77.8,29.78,SE,146,7.2,19.2,76,0.00,,---,0.00,969.00,VWS V14.01,2013-06-01 17:00:00,
2013-06-01 12:05:00,86.5,78.4,29.78,SSE,156,20.2,22.2,77,0.00,,---,0.00,981.00,VWS V14.01,2013-06-01 17:05:00,
2013-06-01 12:10:00,86.1,77.7,29.78,South,171,6.2,21.2,76,0.00,,---,0.00,977.00,VWS V14.01,2013-06-01 17:10:00,
2013-06-01 12:15:00,86.3,78.2,29.77,ESE,111,11.2,19.2,77,0.00,,---,0.00,979.00,VWS V14.01,2013-06-01 17:15:00,
2013-06-01 12:20:00,87.0,78.5,29.77,SSE,159,7.2,19.2,76,0.00,,---,0.00,983.00,VWS V14.01,2013-06-01 17:20:00,
2013-06-01 12:25:00,87.0,78.1,29.77,SSW,213,6.2,21.2,75,0.00,,---,0.00,993.00,VWS V14.01,2013-06-01 17:25:00,
2013-06-01 12:30:00,87.0,78.1,29.77,SE,128,10.2,20.2,75,0.00,,---,0.00,1000.00,VWS V14.01,2013-06-01 17:30:00,
2013-06-01 12:35:00,86.5,78.0,29.77,SSE,166,17.2,19.2,76,0.00,,---,0.00,1002.00,VWS V14.01,2013-06-01 17:35:00,
2013-06-01 12:40:00,87.2,78.3,29.77,SE,131,12.2,18.2,75,0.00,,---,0.00,1004.00,VWS V14.01,2013-06-01 17:40:00,
2013-06-01 12:45:00,87.0,78.1,29.77,East,93,4.2,17.2,75,0.00,,---,0.00,1011.00,VWS V14.01,2013-06-01 17:45:00,
2013-06-01 12:50:00,87.0,78.5,29.77,SSE,167,10.2,19.2,76,0.00,,---,0.00,1014.00,VWS V14.01,2013-06-01 17:50:00,
2013-06-01 12:55:00,87.4,79.3,29.77,SE,140,14.2,15.2,77,0.00,,---,0.00,1018.00,VWS V14.01,2013-06-01 17:55:00,
2013-06-01 13:00:00,87.6,78.7,29.77,SSE,153,7.2,20.2,75,0.00,,---,0.00,1023.00,VWS V14.01,2013-06-01 18:00:00,
2013-06-01 13:05:00,88.2,78.9,29.77,South,174,11.2,19.2,74,0.00,,---,0.00,1030.00,VWS V14.01,2013-06-01 18:05:00,
2013-06-01 13:10:00,88.0,78.7,29.77,SSE,148,19.2,21.2,74,0.00,,---,0.00,1025.00,VWS V14.01,2013-06-01 18:10:00,
2013-06-01 13:15:00,87.4,78.9,29.76,SSE,152,17.2,18.2,76,0.00,,---,0.00,1034.00,VWS V14.01,2013-06-01 18:15:00,
2013-06-01 13:20:00,87.4,78.5,29.76,SE,128,12.2,18.2,75,0.00,,---,0.00,1034.00,VWS V14.01,2013-06-01 18:20:00,
2013-06-01 13:25:00,87.6,78.7,29.76,SSE,150,14.2,17.2,75,0.00,,---,0.00,1035.00,VWS V14.01,2013-06-01 18:25:00,
2013-06-01 13:30:00,87.6,78.3,29.77,SE,141,13.2,18.2,74,0.00,,---,0.00,1034.00,VWS V14.01,2013-06-01 18:30:00,
2013-06-01 13:35:00,88.2,78.9,29.77,SE,137,15.2,20.2,74,0.00,,---,0.00,1035.00,VWS V14.01,2013-06-01 18:35:00,
2013-06-01 13:40:00,87.6,78.3,29.77,SE,136,9.2,21.2,74,0.00,,---,0.00,1037.00,VWS V14.01,2013-06-01 18:40:00,
2013-06-01 13:45:00,87.8,78.5,29.76,SE,126,11.2,21.2,74,0.00,,---,0.00,1035.00,VWS V14.01,2013-06-01 18:45:00,
2013-06-01 13:50:00,87.6,78.3,29.76,SSE,155,13.2,18.2,74,0.00,,---,0.00,1037.00,VWS V14.01,2013-06-01 18:50:00,
2013-06-01 13:55:00,88.0,78.3,29.76,SSE,156,8.2,22.2,73,0.00,,---,0.00,1037.00,VWS V14.01,2013-06-01 18:55:00,
2013-06-01 14:00:00,88.2,78.4,29.76,SE,139,17.2,23.2,73,0.00,,---,0.00,1037.00,VWS V14.01,2013-06-01 19:00:00,
2013-06-01 14:05:00,87.6,78.7,29.76,ESE,123,14.2,21.2,75,0.00,,---,0.00,1032.00,VWS V14.01,2013-06-01 19:05:00,
2013-06-01 14:10:00,87.6,78.7,29.76,SE,126,12.2,22.2,75,0.00,,---,0.00,1027.00,VWS V14.01,2013-06-01 19:10:00,
2013-06-01 14:15:00,87.8,78.5,29.75,SE,145,16.2,23.2,74,0.00,,---,0.00,1025.00,VWS V14.01,2013-06-01 19:15:00,
2013-06-01 14:20:00,88.0,78.7,29.75,East,88,8.2,21.2,74,0.00,,---,0.00,1025.00,VWS V14.01,2013-06-01 19:20:00,
2013-06-01 14:25:00,88.0,78.7,29.75,SE,134,14.2,21.2,74,0.00,,---,0.00,1014.00,VWS V14.01,2013-06-01 19:25:00,
2013-06-01 14:30:00,87.2,78.3,29.75,SE,132,18.2,22.2,75,0.00,,---,0.00,1007.00,VWS V14.01,2013-06-01 19:30:00,
2013-06-01 14:35:00,86.7,78.2,29.75,SSE,153,14.2,21.2,76,0.00,,---,0.00,1000.00,VWS V14.01,2013-06-01 19:35:00,
2013-06-01 14:40:00,87.2,78.3,29.75,SE,139,22.2,22.2,75,0.00,,---,0.00,997.00,VWS V14.01,2013-06-01 19:40:00,
2013-06-01 14:45:00,87.2,78.3,29.75,SE,142,12.2,22.2,75,0.00,,---,0.00,988.00,VWS V14.01,2013-06-01 19:45:00,
2013-06-01 14:50:00,87.8,78.1,29.75,ESE,117,21.2,25.2,73,0.00,,---,0.00,979.00,VWS V14.01,2013-06-01 19:50:00,
2013-06-01 14:55:00,87.4,78.1,29.75,SE,140,12.2,25.2,74,0.00,,---,0.00,976.00,VWS V14.01,2013-06-01 19:55:00,
2013-06-01 15:00:00,87.8,78.5,29.75,East,92,12.2,21.2,74,0.00,,---,0.00,960.00,VWS V14.01,2013-06-01 20:00:00,
2013-06-01 15:05:00,87.6,78.3,29.75,SE,144,13.2,19.2,74,0.00,,---,0.00,958.00,VWS V14.01,2013-06-01 20:05:00,
2013-06-01 15:10:00,87.8,78.5,29.75,SE,144,15.2,21.2,74,0.00,,---,0.00,947.00,VWS V14.01,2013-06-01 20:10:00,
2013-06-01 15:15:00,87.2,78.7,29.74,ESE,110,12.2,22.2,76,0.00,,---,0.00,935.00,VWS V14.01,2013-06-01 20:15:00,
2013-06-01 15:20:00,87.4,78.5,29.74,ESE,109,17.2,23.2,75,0.00,,---,0.00,930.00,VWS V14.01,2013-06-01 20:20:00,
2013-06-01 15:25:00,88.0,78.7,29.74,SE,141,22.2,22.2,74,0.00,,---,0.00,918.00,VWS V14.01,2013-06-01 20:25:00,
2013-06-01 15:30:00,87.4,78.1,29.74,SE,140,13.2,24.2,74,0.00,,---,0.00,904.00,VWS V14.01,2013-06-01 20:30:00,
2013-06-01 15:35:00,87.0,78.1,29.74,SE,138,19.2,23.2,75,0.00,,---,0.00,898.00,VWS V14.01,2013-06-01 20:35:00,
2013-06-01 15:40:00,87.2,78.3,29.74,ESE,119,8.2,22.2,75,0.00,,---,0.00,888.00,VWS V14.01,2013-06-01 20:40:00,
2013-06-01 15:45:00,87.2,77.9,29.74,SE,137,14.2,19.2,74,0.00,,---,0.00,872.00,VWS V14.01,2013-06-01 20:45:00,
2013-06-01 15:50:00,87.8,78.5,29.74,SSE,158,10.2,19.2,74,0.00,,---,0.00,863.00,VWS V14.01,2013-06-01 20:50:00,
2013-06-01 15:55:00,87.8,77.7,29.74,SE,146,11.2,21.2,72,0.00,,---,0.00,846.00,VWS V14.01,2013-06-01 20:55:00,
2013-06-01 16:00:00,87.6,78.3,29.73,SSE,164,13.2,20.2,74,0.00,,---,0.00,837.00,VWS V14.01,2013-06-01 21:00:00,
2013-06-01 16:05:00,87.6,78.7,29.73,SE,138,8.2,20.2,75,0.00,,---,0.00,821.00,VWS V14.01,2013-06-01 21:05:00,
2013-06-01 16:10:00,87.4,78.1,29.73,SE,140,15.2,23.2,74,0.00,,---,0.00,805.00,VWS V14.01,2013-06-01 21:10:00,
2013-06-01 16:15:00,87.4,78.5,29.74,SE,136,13.2,20.2,75,0.00,,---,0.00,789.00,VWS V14.01,2013-06-01 21:15:00,
2013-06-01 16:20:00,87.2,77.9,29.74,SE,145,11.2,21.2,74,0.00,,---,0.00,788.00,VWS V14.01,2013-06-01 21:20:00,
2013-06-01 16:25:00,87.6,78.7,29.74,ESE,105,13.2,20.2,75,0.00,,---,0.00,768.00,VWS V14.01,2013-06-01 21:25:00,
2013-06-01 16:30:00,87.6,78.3,29.74,SE,140,15.2,20.2,74,0.00,,---,0.00,751.00,VWS V14.01,2013-06-01 21:30:00,
2013-06-01 16:35:00,87.0,78.5,29.74,East,97,13.2,21.2,76,0.00,,---,0.00,745.00,VWS V14.01,2013-06-01 21:35:00,
2013-06-01 16:40:00,87.0,78.5,29.74,ESE,113,17.2,24.2,76,0.00,,---,0.00,677.00,VWS V14.01,2013-06-01 21:40:00,
2013-06-01 16:45:00,86.7,78.6,29.73,ESE,117,20.2,20.2,77,0.00,,---,0.00,719.00,VWS V14.01,2013-06-01 21:45:00,
2013-06-01 16:50:00,86.7,78.6,29.73,SSE,155,13.2,18.2,77,0.00,,---,0.00,694.00,VWS V14.01,2013-06-01 21:50:00,
2013-06-01 16:55:00,86.7,78.2,29.73,ESE,115,12.2,20.2,76,0.00,,---,0.00,679.00,VWS V14.01,2013-06-01 21:55:00,
2013-06-01 17:00:00,87.0,78.5,29.73,SE,144,11.2,22.2,76,0.00,,---,0.00,661.00,VWS V14.01,2013-06-01 22:00:00,
2013-06-01 17:05:00,86.7,78.2,29.73,SE,133,11.2,17.2,76,0.00,,---,0.00,647.00,VWS V14.01,2013-06-01 22:05:00,
2013-06-01 17:10:00,86.3,78.2,29.73,SE,133,13.2,21.2,77,0.00,,---,0.00,631.00,VWS V14.01,2013-06-01 22:10:00,
2013-06-01 17:15:00,85.9,77.9,29.73,SE,128,13.2,21.2,77,0.00,,---,0.00,615.00,VWS V14.01,2013-06-01 22:15:00,
2013-06-01 17:20:00,86.1,78.4,29.73,East,90,16.2,17.2,78,0.00,,---,0.00,601.00,VWS V14.01,2013-06-01 22:20:00,
2013-06-01 17:25:00,87.0,78.9,29.73,ESE,116,10.2,20.2,77,0.00,,---,0.00,577.00,VWS V14.01,2013-06-01 22:25:00,
2013-06-01 17:30:00,86.1,78.1,29.73,ESE,123,7.2,24.2,77,0.00,,---,0.00,573.00,VWS V14.01,2013-06-01 22:30:00,
2013-06-01 17:35:00,85.9,77.9,29.73,ESE,112,16.2,21.2,77,0.00,,---,0.00,534.00,VWS V14.01,2013-06-01 22:35:00,
2013-06-01 17:40:00,85.5,77.9,29.73,SE,136,16.2,21.2,78,0.00,,---,0.00,531.00,VWS V14.01,2013-06-01 22:40:00,
2013-06-01 17:45:00,85.5,77.9,29.73,SE,126,17.2,19.2,78,0.00,,---,0.00,531.00,VWS V14.01,2013-06-01 22:45:00,
2013-06-01 17:50:00,85.7,78.4,29.73,ESE,116,11.2,22.2,79,0.00,,---,0.00,482.00,VWS V14.01,2013-06-01 22:50:00,
2013-06-01 17:55:00,86.1,78.4,29.73,ESE,103,16.2,20.2,78,0.00,,---,0.00,350.00,VWS V14.01,2013-06-01 22:55:00,
2013-06-01 18:00:00,85.5,78.6,29.73,ESE,120,12.2,21.2,80,0.00,,---,0.00,468.00,VWS V14.01,2013-06-01 23:00:00,
2013-06-01 18:05:00,85.1,78.2,29.73,SE,131,12.2,17.2,80,0.00,,---,0.00,461.00,VWS V14.01,2013-06-01 23:05:00,
2013-06-01 18:10:00,84.7,78.2,29.73,ESE,113,11.2,18.2,81,0.00,,---,0.00,427.00,VWS V14.01,2013-06-01 23:10:00,
2013-06-01 18:15:00,84.7,77.8,29.73,SE,136,7.2,20.2,80,0.00,,---,0.00,339.00,VWS V14.01,2013-06-01 23:15:00,
2013-06-01 18:20:00,85.1,78.2,29.73,ESE,116,10.2,19.2,80,0.00,,---,0.00,396.00,VWS V14.01,2013-06-01 23:20:00,
2013-06-01 18:25:00,85.3,78.4,29.73,ESE,113,17.2,20.2,80,0.00,,---,0.00,392.00,VWS V14.01,2013-06-01 23:25:00,
2013-06-01 18:30:00,84.7,78.2,29.73,East,96,10.2,20.2,81,0.00,,---,0.00,399.00,VWS V14.01,2013-06-01 23:30:00,
2013-06-01 18:35:00,84.5,78.4,29.73,SE,124,10.2,20.2,82,0.00,,---,0.00,339.00,VWS V14.01,2013-06-01 23:35:00,
2013-06-01 18:40:00,84.1,78.4,29.73,ESE,110,10.2,19.2,83,0.00,,---,0.00,171.00,VWS V14.01,2013-06-01 23:40:00,
2013-06-01 18:45:00,84.0,78.3,29.73,SE,128,7.2,17.2,83,0.00,,---,0.00,315.00,VWS V14.01,2013-06-01 23:45:00,
2013-06-01 18:50:00,84.0,78.7,29.74,ESE,112,17.2,21.2,84,0.00,,---,0.00,132.00,VWS V14.01,2013-06-01 23:50:00,
2013-06-01 18:55:00,83.4,78.1,29.74,SE,127,15.2,20.2,84,0.00,,---,0.00,197.00,VWS V14.01,2013-06-01 23:55:00,
2013-06-01 19:00:00,83.0,77.7,29.74,ESE,105,10.2,20.2,84,0.00,,---,0.00,113.00,VWS V14.01,2013-06-02 00:00:00,
2013-06-01 19:05:00,82.8,79.2,29.74,ESE,108,8.2,18.2,89,0.00,,---,0.00,272.00,VWS V14.01,2013-06-02 00:05:00,
2013-06-01 19:10:00,82.8,78.2,29.74,SSE,157,16.2,18.2,86,0.00,,---,0.00,93.00,VWS V14.01,2013-06-02 00:10:00,
2013-06-01 19:15:00,82.8,78.2,29.74,ESE,112,11.2,19.2,86,0.00,,---,0.00,134.00,VWS V14.01,2013-06-02 00:15:00,
2013-06-01 19:20:00,83.0,78.4,29.74,East,96,13.2,20.2,86,0.00,,---,0.00,114.00,VWS V14.01,2013-06-02 00:20:00,
2013-06-01 19:25:00,83.2,78.2,29.74,SE,127,13.2,18.2,85,0.00,,---,0.00,72.00,VWS V14.01,2013-06-02 00:25:00,
2013-06-01 19:30:00,82.6,78.0,29.74,ESE,118,11.2,17.2,86,0.00,,---,0.00,70.00,VWS V14.01,2013-06-02 00:30:00,
2013-06-01 19:35:00,82.4,77.8,29.74,SE,132,15.2,18.2,86,0.00,,---,0.00,60.00,VWS V14.01,2013-06-02 00:35:00,
2013-06-01 19:40:00,82.0,77.8,29.74,ESE,120,13.2,20.2,87,0.00,,---,0.00,39.00,VWS V14.01,2013-06-02 00:40:00,
2013-06-01 19:45:00,81.8,77.9,29.74,East,97,7.2,16.2,88,0.00,,---,0.00,46.00,VWS V14.01,2013-06-02 00:45:00,
2013-06-01 19:50:00,81.6,77.7,29.75,ESE,109,7.2,18.2,88,0.00,,---,0.00,26.00,VWS V14.01,2013-06-02 00:50:00,
2013-06-01 19:55:00,82.0,78.1,29.75,East,96,12.2,17.2,88,0.00,,---,0.00,25.00,VWS V14.01,2013-06-02 00:55:00,
2013-06-01 20:00:00,81.6,77.7,29.75,ESE,103,12.2,16.2,88,0.00,,---,0.00,16.00,VWS V14.01,2013-06-02 01:00:00,
2013-06-01 20:05:00,81.8,77.9,29.75,ESE,105,11.2,15.2,88,0.00,,---,0.00,12.00,VWS V14.01,2013-06-02 01:05:00,
2013-06-01 20:10:00,81.6,77.7,29.75,East,101,14.2,17.2,88,0.00,,---,0.00,5.00,VWS V14.01,2013-06-02 01:10:00,
2013-06-01 20:15:00,81.6,77.7,29.75,East,96,14.2,18.2,88,0.00,,---,0.00,0.00,VWS V14.01,2013-06-02 01:15:00,
2013-06-01 20:20:00,81.6,77.7,29.75,ESE,102,7.2,21.2,88,0.00,,---,0.00,0.00,VWS V14.01,2013-06-02 01:20:00,
2013-06-01 20:25:00,81.6,78.1,29.75,ESE,118,10.2,15.2,89,0.00,,---,0.00,0.00,VWS V14.01,2013-06-02 01:25:00,
2013-06-01 20:30:00,81.6,78.1,29.75,East,98,7.2,15.2,89,0.00,,---,0.00,0.00,VWS V14.01,2013-06-02 01:30:00,
2013-06-01 20:35:00,81.6,78.1,29.76,ESE,115,13.2,20.2,89,0.00,,---,0.00,0.00,VWS V14.01,2013-06-02 01:35:00,
2013-06-01 20:40:00,81.4,77.8,29.76,ESE,113,5.2,15.2,89,0.00,,---,0.00,0.00,VWS V14.01,2013-06-02 01:40:00,
2013-06-01 20:45:00,81.2,78.0,29.76,South,171,16.2,16.2,90,0.00,,---,0.00,0.00,VWS V14.01,2013-06-02 01:45:00,
2013-06-01 20:50:00,81.2,78.0,29.76,ESE,104,6.2,14.2,90,0.00,,---,0.00,0.00,VWS V14.01,2013-06-02 01:50:00,
2013-06-01 20:55:00,81.4,77.8,29.76,ESE,105,7.2,17.2,89,0.00,,---,0.00,0.00,VWS V14.01,2013-06-02 01:55:00,
2013-06-01 21:00:00,81.4,77.8,29.76,ESE,115,11.2,16.2,89,0.00,,---,0.00,0.00,VWS V14.01,2013-06-02 02:00:00,
2013-06-01 21:05:00,81.4,77.8,29.77,ESE,121,14.2,19.2,89,0.00,,---,0.00,0.00,VWS V14.01,2013-06-02 02:05:00,
2013-06-01 21:10:00,81.6,78.1,29.77,ESE,122,15.2,16.2,89,0.00,,---,0.00,0.00,VWS V14.01,2013-06-02 02:10:00,
2013-06-01 21:15:00,81.8,77.9,29.77,ESE,108,13.2,17.2,88,0.00,,---,0.00,0.00,VWS V14.01,2013-06-02 02:15:00,
2013-06-01 21:20:00,81.2,77.7,29.78,East,94,10.2,16.2,89,0.00,,---,0.00,0.00,VWS V14.01,2013-06-02 02:20:00,
2013-06-01 21:25:00,81.1,77.6,29.78,SE,126,6.2,18.2,89,0.00,,---,0.00,0.00,VWS V14.01,2013-06-02 02:25:00,
2013-06-01 21:30:00,81.1,77.9,29.78,East,98,10.2,16.2,90,0.00,,---,0.00,0.00,VWS V14.01,2013-06-02 02:30:00,
2013-06-01 21:35:00,81.1,77.6,29.78,SE,124,15.2,15.2,89,0.00,,---,0.00,0.00,VWS V14.01,2013-06-02 02:35:00,
2013-06-01 21:40:00,81.1,77.9,29.78,SE,131,10.2,16.2,90,0.00,,---,0.00,0.00,VWS V14.01,2013-06-02 02:40:00,
2013-06-01 21:45:00,81.2,77.7,29.78,ESE,117,12.2,17.2,89,0.00,,---,0.00,0.00,VWS V14.01,2013-06-02 02:45:00,
2013-06-01 21:50:00,81.2,77.7,29.78,East,95,8.2,15.2,89,0.00,,---,0.00,0.00,VWS V14.01,2013-06-02 02:50:00,
2013-06-01 21:55:00,81.6,78.1,29.78,ESE,119,11.2,15.2,89,0.00,,---,0.00,0.00,VWS V14.01,2013-06-02 02:55:00,
2013-06-01 22:00:00,81.6,77.7,29.78,East,98,7.2,19.2,88,0.00,,---,0.00,0.00,VWS V14.01,2013-06-02 03:00:00,
2013-06-01 22:05:00,81.1,77.6,29.78,SE,140,12.2,18.2,89,0.00,,---,0.00,0.00,VWS V14.01,2013-06-02 03:05:00,
2013-06-01 22:10:00,80.9,77.7,29.78,SE,138,7.2,18.2,90,0.00,,---,0.00,0.00,VWS V14.01,2013-06-02 03:10:00,
2013-06-01 22:15:00,80.9,77.7,29.78,ESE,102,7.2,14.2,90,0.00,,---,0.00,0.00,VWS V14.01,2013-06-02 03:15:00,
2013-06-01 22:20:00,80.9,77.7,29.79,ESE,106,7.2,18.2,90,0.00,,---,0.00,0.00,VWS V14.01,2013-06-02 03:20:00,
2013-06-01 22:25:00,80.9,77.7,29.79,SE,124,10.2,16.2,90,0.00,,---,0.00,0.00,VWS V14.01,2013-06-02 03:25:00,
2013-06-01 22:30:00,80.9,77.7,29.79,SE,138,13.2,15.2,90,0.00,,---,0.00,0.00,VWS V14.01,2013-06-02 03:30:00,
2013-06-01 22:35:00,81.1,77.9,29.80,East,100,11.2,14.2,90,0.00,,---,0.00,0.00,VWS V14.01,2013-06-02 03:35:00,
2013-06-01 22:40:00,81.4,78.2,29.80,SE,124,15.2,15.2,90,0.00,,---,0.00,0.00,VWS V14.01,2013-06-02 03:40:00,
2013-06-01 22:45:00,81.6,78.1,29.80,SE,134,4.2,15.2,89,0.00,,---,0.00,0.00,VWS V14.01,2013-06-02 03:45:00,
2013-06-01 22:50:00,81.4,77.5,29.81,ESE,106,11.2,15.2,88,0.00,,---,0.00,0.00,VWS V14.01,2013-06-02 03:50:00,
2013-06-01 22:55:00,81.1,77.6,29.81,SE,143,10.2,12.2,89,0.00,,---,0.00,0.00,VWS V14.01,2013-06-02 03:55:00,
2013-06-01 23:00:00,81.1,77.9,29.81,ESE,117,7.2,13.2,90,0.00,,---,0.00,0.00,VWS V14.01,2013-06-02 04:00:00,
2013-06-01 23:01:00,81.1,77.9,29.82,ESE,121,6.2,13.2,90,0.00,,---,0.00,0.00,VWS V14.01,2013-06-02 04:01:00,
2013-06-01 23:05:00,80.9,77.7,29.82,ESE,123,6.2,15.2,90,0.00,,---,0.00,0.00,VWS V14.01,2013-06-02 04:05:00,
2013-06-01 23:06:00,80.9,77.7,29.82,ESE,123,6.2,15.2,90,0.00,,---,0.00,0.00,VWS V14.01,2013-06-02 04:06:00,
2013-06-01 23:10:00,80.9,77.7,29.82,SE,125,5.2,17.2,90,0.00,,---,0.00,0.00,VWS V14.01,2013-06-02 04:10:00,
2013-06-01 23:11:00,80.9,77.7,29.82,SE,125,5.2,17.2,90,0.00,,---,0.00,0.00,VWS V14.01,2013-06-02 04:11:00,
2013-06-01 23:15:00,80.9,77.7,29.82,ESE,105,9.2,12.2,90,0.00,,---,0.00,0.00,VWS V14.01,2013-06-02 04:15:00,
2013-06-01 23:16:00,80.9,77.7,29.82,ESE,118,7.2,9.2,90,0.00,,---,0.00,0.00,VWS V14.01,2013-06-02 04:16:00,
2013-06-01 23:20:00,80.9,78.0,29.82,ESE,109,12.2,13.2,91,0.00,,---,0.00,0.00,VWS V14.01,2013-06-02 04:20:00,
2013-06-01 23:21:00,80.9,78.0,29.82,East,84,11.2,12.2,91,0.00,,---,0.00,0.00,VWS V14.01,2013-06-02 04:21:00,
2013-06-01 23:25:00,81.2,78.3,29.82,ESE,109,8.2,13.2,91,0.00,,---,0.00,0.00,VWS V14.01,2013-06-02 04:25:00,
2013-06-01 23:26:00,81.2,78.3,29.82,ESE,104,7.2,8.2,91,0.00,,---,0.00,0.00,VWS V14.01,2013-06-02 04:26:00,
2013-06-01 23:30:00,81.6,76.7,29.82,SE,126,7.2,12.2,85,0.00,,---,0.00,0.00,VWS V14.01,2013-06-02 04:30:00,
2013-06-01 23:31:00,81.6,76.7,29.82,SE,126,7.2,12.2,85,0.00,,---,0.00,0.00,VWS V14.01,2013-06-02 04:31:00,
2013-06-01 23:35:00,81.4,77.8,29.82,SE,136,13.2,14.2,89,0.00,,---,0.00,0.00,VWS V14.01,2013-06-02 04:35:00,
2013-06-01 23:36:00,81.4,77.8,29.82,SE,124,7.2,14.2,89,0.00,,---,0.00,0.00,VWS V14.01,2013-06-02 04:36:00,
2013-06-01 23:40:00,81.2,78.0,29.82,SE,139,7.2,13.2,90,0.00,,---,0.00,0.00,VWS V14.01,2013-06-02 04:40:00,
2013-06-01 23:41:00,81.2,78.0,29.82,SE,139,7.2,13.2,90,0.00,,---,0.00,0.00,VWS V14.01,2013-06-02 04:41:00,
2013-06-01 23:45:00,81.2,78.0,29.82,SE,124,15.2,15.2,90,0.00,,---,0.00,0.00,VWS V14.01,2013-06-02 04:45:00,
2013-06-01 23:46:00,81.2,78.0,29.82,SE,124,15.2,15.2,90,0.00,,---,0.00,0.00,VWS V14.01,2013-06-02 04:46:00,
2013-06-01 23:50:00,80.9,77.7,29.82,ESE,111,10.2,15.2,90,0.00,,---,0.00,0.00,VWS V14.01,2013-06-02 04:50:00,
2013-06-01 23:51:00,80.9,77.7,29.82,ESE,111,10.2,15.2,90,0.00,,---,0.00,0.00,VWS V14.01,2013-06-02 04:51:00,
2013-06-01 23:55:00,80.9,78.0,29.82,SSE,149,7.2,13.2,91,0.00,,---,0.00,0.00,VWS V14.01,2013-06-02 04:55:00,
2013-06-01 23:56:00,80.9,78.0,29.82,SSE,149,7.2,13.2,91,0.00,,---,0.00,0.00,VWS V14.01,2013-06-02 04:56:00,